[[{"header":{"parameterUnit":"m.s-1","parameterCategory":1,"la1":30.2991,"la2":30.254,"lo1":-89.0895,"lo2":-89.0444,"dy":0.0017,"dx":0.0017,"nx":28,"ny":28,"refTime":"2024-02-27T09:00:00:Z","depth":0,"parameterNumber":2,"parameterNumberName":"U-component_of_WINDS"},"data":[0,0,0,0,0,0,0,0,0,0,0,0,0,0,0,0,0,0,0,0,0,0,0,0,0,0,0,0,0,0,0,0,0,0,0,0,0,0,0,0,0,0,0,0,0,0,0,0,0,0,0,0,0,0,0,0,0,0,1.9344,1.9344,0,1.9346,1.9346,1.9346,1.9297,1.9296,1.9295,1.9294,1.9296,1.9298,1.9299,0,0,0,0,0,0,0,0,0,0,0,0,0,1.9302,1.9303,1.9344,1.9344,1.9344,1.9345,1.9346,1.9346,1.9298,1.9296,1.9295,1.9293,1.9296,1.9297,1.9299,0,0,0,0,0,0,0,0,0,0,0,0,0,1.9314,1.9304,1.9344,1.9321,1.9319,1.9345,1.9346,1.9346,1.9298,1.9296,1.9294,1.9292,1.9295,1.9297,1.9299,1.9349,0,0,1.9305,1.9306,0,0,0,0,0,0,0,0,1.9313,1.9315,1.9324,1.9322,1.932,1.9319,1.9332,1.9347,1.9298,1.9306,1.9294,1.9291,1.9306,1.9307,1.9311,1.9349,1.935,1.9305,1.9306,1.9307,1.9308,0,0,0,0,0,0,0,1.9312,1.9315,1.9345,1.9324,1.9322,1.931,1.931,1.9334,1.9317,1.9305,1.9302,1.9302,1.9304,1.9309,1.9311,1.935,1.9305,1.9307,1.9308,1.9309,1.943,1.9432,0,0,0,0,0,0,1.9315,1.9315,1.9345,1.9345,1.9312,1.9313,1.9312,1.9322,1.9316,1.9313,1.9304,1.93,1.9307,1.9309,1.9311,1.937,1.9307,1.9309,1.931,1.9428,1.943,1.9433,0,0,0,0,0,0,1.9314,1.9318,1.9345,1.9329,1.9331,1.9315,1.9326,1.9323,1.9328,1.9315,1.9312,1.9312,1.9306,1.9308,1.934,1.9369,1.931,1.9311,1.9425,1.9429,1.9432,1.9488,0,0,0,0,0,0,1.9313,1.9318,1.9336,1.933,1.9332,1.9374,1.9328,1.9324,1.9331,1.9326,1.9322,1.932,1.9304,1.9338,1.9342,1.9371,1.9313,1.9423,1.9427,1.9431,1.9483,1.9492,1.95,0,0,0,0,0,1.9312,1.9352,1.9338,1.9342,1.9355,1.9376,1.9377,1.9358,1.9333,1.9352,1.9344,1.932,1.9365,1.9341,1.9346,1.9375,1.9421,1.9426,1.943,1.9479,1.9491,1.95,0,0,0,0,0,0,1.9363,1.9351,1.9335,1.9374,1.9376,1.9367,1.9391,1.937,1.938,1.9375,1.9351,1.935,1.9387,1.9384,1.9358,1.9424,1.9389,1.9395,1.9424,1.9435,1.9443,1.9443,1.9314,0,0,0,0,0,1.9379,1.9396,1.9385,1.9421,1.9423,1.9407,1.9415,1.94,1.9401,1.9402,1.9396,1.9399,1.9414,1.9424,1.9437,1.9482,1.9481,1.9505,1.9514,1.9521,1.9526,1.9551,1.9561,1.9448,1.9448,1.9448,0,0,1.9412,1.9408,1.942,1.9431,1.9431,1.945,1.9408,1.9429,1.9443,1.9405,1.9435,1.9432,1.9433,1.9472,1.9489,1.9471,1.9557,1.9527,1.9532,1.9534,1.9557,1.9567,1.9577,1.9451,1.9451,1.945,0,0,1.9483,1.9481,1.9511,1.9512,1.9512,1.9501,1.9508,1.9503,1.9498,1.9528,1.95,1.9517,1.9542,1.9545,1.9549,1.9621,1.96,1.9626,1.9671,1.9695,1.9704,1.9712,1.9738,1.9747,1.9631,1.9632,1.9632,0,1.9524,1.9551,1.9529,1.9553,1.9559,1.9525,1.9556,1.9557,1.9562,1.9567,1.9547,1.9579,1.9577,1.9617,1.9635,1.9639,1.9647,1.9627,1.9704,1.9712,1.9719,1.9744,1.9753,1.9635,1.9634,1.9634,1.9634,0,1.9602,1.9621,1.9646,1.9651,1.966,1.9687,1.967,1.9681,1.9665,1.9657,1.9688,1.9685,1.9697,1.9705,1.969,1.9743,1.9732,1.9708,1.9672,1.9733,1.9756,1.9765,1.964,1.9638,1.9637,1.9637,0,0,1.9705,1.9698,1.9707,1.971,1.9708,1.9722,1.9748,1.9759,1.977,1.9775,1.9796,1.9819,1.9797,1.9803,1.9787,1.9809,1.9867,1.9782,1.9782,1.9799,1.9925,1.9944,1.9955,1.9852,1.9854,1.9855,1.9926,0,1.9773,1.9817,1.9798,1.9844,1.9862,1.983,1.9853,1.9854,1.9847,1.9862,1.9854,1.987,1.984,1.9843,1.9863,1.9855,1.9892,1.985,1.9873,1.9874,1.9874,1.9967,1.9986,2.0053,1.9934,1.9936,1.9937,0,1.9859,1.9867,1.9915,1.991,1.9917,1.9938,1.9947,1.9961,1.9963,1.9956,1.9962,1.9942,1.9968,1.9932,1.9967,1.9939,1.9947,1.9945,1.9947,1.9949,1.9909,1.9972,2.0073,2.0084,1.9951,1.995,1.9949,0,1.993,1.9953,1.9984,1.9987,1.9983,1.9998,1.9997,1.9996,2.0005,2.0013,2.0018,2.0029,2.0036,2.0045,2.0029,2.0004,2.0067,2.003,2.0063,2.0064,2.0078,2.0078,2.0183,2.0083,2.0082,2.0082,2.0082,0,2.0009,2.004,2.0016,2.0036,2.0069,2.0048,2.0082,2.0077,2.0077,2.0095,2.0068,2.0086,2.0064,2.008,2.0068,2.0099,2.0102,2.0098,2.0095,2.0101,2.0102,2.0106,2.0102,2.0085,2.0084,2.0084,2.0083,0,2.0094,2.008,2.0112,2.0105,2.0104,2.0129,2.0124,2.0142,2.0132,2.0156,2.0161,2.0147,2.0164,2.0149,2.0166,2.0158,2.02,2.0189,2.02,2.0197,2.0231,2.0229,2.0344,2.0359,2.0248,2.0249,2.025,0,2.0146,2.0168,2.0164,2.0174,2.0175,2.0192,2.02,2.018,2.019,2.0194,2.0212,2.0227,2.0238,2.0267,2.0259,2.0272,2.0262,2.0301,2.0264,2.0269,2.0263,2.0262,2.0265,2.0309,2.0311,2.0312,2.0313,0,2.0239,2.0231,2.0244,2.0255,2.0265,2.0273,2.0278,2.0288,2.0268,2.028,2.0298,2.0306,2.0324,2.0339,2.035,2.0349,2.0328,2.0325,2.0333,2.034,2.0345,2.0344,2.0221,2.0322,2.0321,2.032,2.032,2.032,2.0309,2.0328,2.0328,2.0344,2.0346,2.0352,2.0369,2.0362,2.0376,2.0388,2.0375,2.0397,2.0398,2.041,2.0412,2.0429,2.0412,2.0424,2.0428,2.0431,2.0436,2.0342,2.043,2.043,2.043,2.043,2.0429,0,2.0401,2.04,2.0414,2.0423,2.0436,2.0414,2.0419,2.0431,2.0451,2.0454,2.0465,2.0486,2.0501,2.0494,2.0507,2.0522,2.0513,2.0526,2.0525,2.0526,2.045,2.0442,2.0534,2.0534,2.0534,2.0534,2.0534,2.0534,2.0451,2.0482,2.0474,2.0507,2.0505,2.0526,2.0531,2.0536,2.0539,2.0563,2.0575,2.057,2.057,2.0583,2.0596,2.0593,2.06,2.0617,2.0612,2.0541,2.0531,2.0521,2.0513,2.0619,2.0619,2.0686,2.0686,2.0687]},{"header":{"parameterUnit":"m.s-1","parameterCategory":1,"la1":30.2991,"la2":30.254,"lo1":-89.0895,"lo2":-89.0444,"dy":0.0017,"dx":0.0017,"nx":28,"ny":28,"refTime":"2024-02-27T09:00:00:Z","depth":0,"parameterNumber":3,"parameterNumberName":"V-component_of_WINDS"},"data":[0,0,0,0,0,0,0,0,0,0,0,0,0,0,0,0,0,0,0,0,0,0,0,0,0,0,0,0,0,0,0,0,0,0,0,0,0,0,0,0,0,0,0,0,0,0,0,0,0,0,0,0,0,0,0,0,0,0,4.374,4.3741,0,4.384,4.3842,4.3843,4.3837,4.3835,4.3834,4.3832,4.3937,4.3941,4.3945,0,0,0,0,0,0,0,0,0,0,0,0,0,4.3546,4.355,4.374,4.3741,4.3743,4.384,4.3842,4.3843,4.3837,4.3835,4.3833,4.3832,4.3936,4.3941,4.3946,0,0,0,0,0,0,0,0,0,0,0,0,0,4.3637,4.3551,4.374,4.3751,4.3753,4.384,4.3842,4.3843,4.3837,4.3835,4.3833,4.3831,4.3934,4.394,4.3946,4.4029,0,0,4.3966,4.3968,0,0,0,0,0,0,0,0,4.3632,4.3644,4.3749,4.3751,4.3753,4.3824,4.3812,4.3906,4.3838,4.3806,4.3832,4.383,4.3901,4.391,4.3934,4.4034,4.4038,4.3966,4.397,4.3973,4.3974,0,0,0,0,0,0,0,4.3626,4.364,4.378,4.375,4.3753,4.3752,4.3763,4.383,4.3865,4.3808,4.3808,4.382,4.3902,4.3928,4.3936,4.404,4.3966,4.3971,4.3975,4.3978,4.4215,4.4217,0,0,0,0,0,0,4.3616,4.3635,4.3777,4.3783,4.3686,4.3758,4.3769,4.3803,4.3864,4.3871,4.3822,4.3819,4.3918,4.3929,4.394,4.4042,4.3972,4.3978,4.3982,4.4212,4.4215,4.4218,0,0,0,0,0,0,4.3612,4.3629,4.3773,4.3709,4.3727,4.3763,4.3802,4.3807,4.3832,4.3874,4.388,4.3841,4.3917,4.3931,4.4007,4.4046,4.3981,4.3987,4.4209,4.4213,4.4217,4.4246,0,0,0,0,0,0,4.3607,4.3628,4.3659,4.3709,4.373,4.3838,4.3804,4.381,4.3843,4.384,4.3894,4.3901,4.3916,4.3998,4.4013,4.4053,4.3992,4.4206,4.4211,4.4215,4.4242,4.4251,4.4258,0,0,0,0,0,4.36,4.3663,4.366,4.3677,4.377,4.384,4.3852,4.3868,4.3846,4.3878,4.3905,4.3899,4.4039,4.4006,4.4023,4.4065,4.4204,4.4209,4.4215,4.4239,4.4249,4.4258,0,0,0,0,0,0,4.3616,4.367,4.3667,4.3749,4.379,4.3838,4.3879,4.3878,4.3926,4.3923,4.3941,4.3953,4.403,4.4055,4.4017,4.4149,4.4118,4.4128,4.413,4.4141,4.4149,4.4142,4.3997,0,0,0,0,0,4.3629,4.3681,4.3725,4.3793,4.3813,4.3843,4.3874,4.3883,4.3926,4.3943,4.3976,4.4019,4.4073,4.4108,4.4159,4.4245,4.4258,4.4283,4.4291,4.4297,4.4306,4.4356,4.4368,4.4237,4.4237,4.4237,0,0,4.3657,4.3693,4.3724,4.3797,4.383,4.3884,4.3857,4.3915,4.3956,4.3952,4.4027,4.4052,4.4101,4.4183,4.4221,4.4207,4.4345,4.4305,4.4309,4.4315,4.4363,4.4375,4.4386,4.4241,4.424,4.4239,0,0,4.3735,4.3767,4.3827,4.3861,4.3911,4.393,4.3945,4.3994,4.4011,4.4085,4.4084,4.4133,4.4224,4.426,4.4291,4.4384,4.4381,4.44,4.4442,4.449,4.4501,4.451,4.4545,4.4558,4.4408,4.4408,4.4408,0,4.3764,4.3845,4.3859,4.3918,4.3951,4.3949,4.4012,4.4044,4.4108,4.4132,4.4114,4.423,4.4263,4.4354,4.4377,4.4401,4.442,4.4395,4.4498,4.4507,4.4516,4.455,4.4563,4.441,4.441,4.441,4.4409,0,4.3878,4.3934,4.3978,4.404,4.4077,4.4138,4.4162,4.4199,4.4204,4.4226,4.4303,4.4342,4.4403,4.4424,4.443,4.4517,4.4507,4.4494,4.4463,4.4531,4.4563,4.4576,4.4413,4.4412,4.4412,4.4411,0,0,4.3971,4.404,4.4056,4.4085,4.414,4.4185,4.4245,4.4304,4.4336,4.438,4.4433,4.4511,4.4499,4.4534,4.4543,4.4585,4.4659,4.4567,4.4569,4.4585,4.476,4.4772,4.4786,4.4657,4.4659,4.4661,4.4757,0,4.4057,4.4164,4.4179,4.4275,4.4328,4.4328,4.4381,4.4421,4.4443,4.4492,4.4516,4.4572,4.4551,4.4572,4.4613,4.4641,4.4695,4.4634,4.4708,4.4711,4.4698,4.4803,4.4815,4.4903,4.4769,4.4771,4.4773,0,4.4171,4.4219,4.432,4.437,4.4392,4.444,4.4496,4.4542,4.4588,4.4601,4.464,4.4645,4.471,4.4675,4.4765,4.4724,4.4755,4.4773,4.4777,4.4786,4.4747,4.4817,4.4931,4.4945,4.4793,4.4791,4.479,0,4.4232,4.4321,4.4394,4.4418,4.4477,4.4511,4.4537,4.4581,4.4615,4.4664,4.4687,4.4743,4.4774,4.4818,4.4839,4.4811,4.4929,4.4895,4.4943,4.4943,4.4969,4.4968,4.5092,4.4986,4.4985,4.4985,4.4985,0,4.4328,4.439,4.4422,4.4467,4.4537,4.4554,4.4623,4.4648,4.4688,4.4738,4.4741,4.4788,4.4811,4.4863,4.4879,4.4953,4.4967,4.498,4.4985,4.4982,4.498,4.5004,4.4999,4.4989,4.4988,4.4987,4.4987,0,4.4408,4.4431,4.4511,4.456,4.4573,4.4623,4.4666,4.471,4.4731,4.4796,4.4812,4.4846,4.4907,4.4931,4.5005,4.5016,4.5102,4.51,4.5087,4.5088,4.5136,4.5132,4.5282,4.5303,4.518,4.5181,4.5182,0,4.4468,4.4516,4.4571,4.4605,4.4632,4.4686,4.4722,4.474,4.4778,4.4834,4.4872,4.4933,4.4983,4.508,4.5113,4.517,4.5171,4.5219,4.518,4.5176,4.5175,4.5173,4.5179,4.5228,4.5229,4.523,4.5231,0,4.4574,4.4584,4.4635,4.469,4.4733,4.4777,4.4821,4.4849,4.4874,4.4916,4.4978,4.5017,4.5093,4.5154,4.5214,4.5242,4.5242,4.5242,4.5257,4.5256,4.5247,4.5255,4.5109,4.524,4.5239,4.5238,4.5238,4.5237,4.4648,4.4692,4.4737,4.4794,4.4829,4.487,4.4914,4.4941,4.4993,4.5057,4.5064,4.5132,4.5178,4.5258,4.5288,4.5342,4.533,4.535,4.5356,4.5361,4.5366,4.5236,4.5353,4.5352,4.5352,4.5352,4.5352,0,4.4756,4.4786,4.4838,4.4899,4.4944,4.4938,4.4987,4.5025,4.5084,4.5127,4.5176,4.5249,4.5308,4.5345,4.5405,4.5441,4.5443,4.5456,4.5455,4.5462,4.5372,4.5355,4.5454,4.5454,4.5454,4.5454,4.5454,4.5454,4.4818,4.4892,4.4907,4.4999,4.5028,4.5093,4.5122,4.516,4.5194,4.5275,4.5324,4.5347,4.5388,4.5452,4.5507,4.5516,4.5539,4.5554,4.5563,4.5479,4.5468,4.5458,4.5442,4.5559,4.5559,4.5649,4.565,4.5651]}]]